Location: Olda
(45.8833°N, 9.5500°E)
Time: 14:08:09
(UTC+00:00)

Cosmos 2333 - Pass Details

Date: 03 March 2021
Orbit: 829 x 866 km, 70.9° (Epoch: 15 April)

Event Time Altitude Azimuth Distance (km) Brightness Sun altitude
Rises 18:30:01 0° 183° (S) 3,369 7.3 -14.5°
Reaches altitude 10° 18:32:32 10° 177° (S) 2,445 6.5 -14.9°
Maximum altitude 18:37:47 43° 108° (ESE) 1,175 4.5 -15.8°
Drops below altitude 10° 18:43:08 10° 38° (NE) 2,484 6.3 -16.7°
Sets 18:45:42 0° 32° (NNE) 3,431 7.1 -17.2°
